KC4LW Weather Reports


time (UTC)temp
C
wind
direction
speed
KPH
gust
KPH
rain 1hr
cm
rain 24hr
cm
rain mn
cm
humidity
%
barometer
mb
20240614123048 25 0 1.6 4.8 0.00 0.00 0.00 94 1013.2
20240614121602 25 0 0.0 3.2 0.00 0.00 0.00 95 1013.0
20240614120059 25 271 0.0 4.8 0.00 0.00 0.00 95 1013.0
20240614114547 24 298 0.0 4.8 0.00 0.00 0.00 95 1012.7
20240614113056 24 281 0.0 4.8 0.00 0.00 0.00 95 1012.5
20240614111556 24 288 1.6 4.8 0.00 0.00 0.00 94 1012.6
20240614110112 24 286 0.0 4.8 0.00 0.00 0.00 94 1012.6
20240614104548 24 0 0.0 3.2 0.00 0.00 0.00 93 1012.4
20240614103051 24 185 0.0 1.6 0.00 0.00 0.00 93 1012.5
20240614101610 25 0 0.0 0.0 0.00 0.00 0.00 92 1012.1
20240614100056 25 0 0.0 1.6 0.00 0.00 0.00 92 1011.9
20240614094600 25 0 0.0 1.6 0.00 0.00 0.00 92 1012.0
20240614093050 25 0 0.0 1.6 0.00 0.00 0.00 91 1012.0
20240614091603 25 0 0.0 1.6 0.00 0.00 0.00 91 1012.1
20240614090109 25 0 0.0 1.6 0.00 0.00 0.00 91 1011.9
20240614084602 25 0 0.0 0.0 0.00 0.00 0.00 91 1011.8
20240614083058 25 0 0.0 3.2 0.00 0.00 0.00 91 1011.7
20240614081553 25 0 0.0 1.6 0.00 0.00 0.00 92 1011.6
20240614080050 25 102 0.0 3.2 0.00 0.00 0.00 92 1011.5
20240614074551 25 71 0.0 3.2 0.00 0.00 0.00 91 1011.6
20240614073047 25 0 0.0 0.0 0.00 0.00 0.00 91 1011.5
20240614071551 25 0 0.0 1.6 0.00 0.00 0.00 91 1011.6
20240614070052 25 0 0.0 3.2 0.00 0.00 0.00 91 1011.7
20240614064556 25 0 0.0 3.2 0.00 0.00 0.00 91 1011.7
20240614063056 25 0 0.0 1.6 0.00 0.00 0.00 91 1011.6
20240614061552 25 92 0.0 1.6 0.00 0.00 0.00 91 1011.9
20240614060108 25 0 0.0 1.6 0.00 0.00 0.00 90 1012.0
20240614054550 25 0 0.0 0.0 0.00 0.00 0.00 89 1012.2
20240614053058 26 92 0.0 3.2 0.00 0.00 0.00 89 1012.3
20240614051557 26 76 0.0 4.8 0.00 0.00 0.00 89 1012.4
20240614050053 26 54 0.0 3.2 0.00 0.00 0.00 89 1012.5
20240614044549 26 111 0.0 4.8 0.00 0.00 0.00 89 1012.5
20240614043049 26 200 0.0 1.6 0.00 0.00 0.00 89 1012.7
20240614041557 26 0 0.0 3.2 0.00 0.00 0.00 88 1012.7
20240614040103 26 0 0.0 3.2 0.00 0.00 0.00 88 1012.7
20240614034603 26 0 0.0 3.2 0.00 0.00 0.00 88 1012.8
20240614033052 26 71 0.0 4.8 0.00 0.00 0.00 88 1012.6
20240614031554 26 0 0.0 3.2 0.00 0.00 0.00 87 1012.4
20240614030057 26 0 0.0 9.7 0.00 0.00 0.00 87 1012.5
20240614024552 26 0 1.6 6.4 0.00 0.00 0.00 88 1012.7
20240614023105 26 78 1.6 9.7 0.00 0.00 0.00 87 1012.5
20240614021553 26 0 0.0 9.7 0.00 0.00 0.00 87 1012.2
20240614020049 26 103 0.0 6.4 0.00 0.00 0.00 87 1012.4
20240614014548 26 92 0.0 6.4 0.00 0.00 0.00 87 1012.3
20240614013048 26 101 0.0 9.7 0.00 0.00 0.00 86 1012.7
20240614011620 26 44 1.6 14.5 0.00 0.00 0.00 85 1012.3
20240614010050 27 296 1.6 9.7 0.00 0.00 0.00 85 1012.4
20240614004554 27 25 1.6 9.7 0.00 0.00 0.00 84 1012.4
20240614003117 27 113 1.6 9.7 0.00 0.00 0.00 84 1012.4
20240614001603 27 0 3.2 12.9 0.00 0.00 0.00 83 1012.3
20240614000052 27 110 1.6 12.9 0.00 0.00 0.00 83 1012.4
20240613234604 27 40 3.2 11.3 0.00 0.00 0.00 82 1012.4
20240613233050 27 85 1.6 12.9 0.00 0.00 0.00 81 1012.1
20240613231602 28 61 3.2 16.1 0.00 0.00 0.00 81 1012.2
20240613230101 28 89 3.2 11.3 0.00 0.00 0.00 81 1012.4
20240613224601 28 138 1.6 14.5 0.00 0.00 0.00 81 1012.3
20240613223059 28 20 1.6 12.9 0.00 0.00 0.00 80 1012.3
20240613221618 29 99 3.2 14.5 0.00 0.00 0.00 78 1012.2
20240613220057 30 117 0.0 6.4 0.00 0.00 0.00 77 1012.0
20240613214601 30 84 1.6 12.9 0.00 0.00 0.00 76 1012.1
20240613213058 31 77 1.6 6.4 0.00 0.00 0.00 75 1011.8
20240613211554 30 119 3.2 11.3 0.00 0.00 0.00 75 1012.1
20240613210055 30 310 1.6 9.7 0.00 0.00 0.00 75 1012.1
20240613204555 30 47 3.2 11.3 0.00 0.00 0.00 75 1012.1
20240613203055 30 109 3.2 14.5 0.00 0.00 0.00 74 1012.2
20240613201557 30 55 4.8 14.5 0.00 0.00 0.00 73 1011.9
20240613200047 30 107 4.8 14.5 0.00 0.00 0.00 70 1012.0
20240613194551 30 155 1.6 11.3 0.00 0.00 0.00 70 1012.3
20240613193102 30 135 3.2 14.5 0.00 0.00 0.00 72 1012.1
20240613191553 30 52 3.2 9.7 0.00 0.00 0.00 76 1012.6
20240613190053 29 5 1.6 11.3 0.00 0.00 0.00 76 1012.6
20240613184559 31 62 3.2 9.7 0.00 0.00 0.00 73 1012.7
20240613183102 31 108 1.6 14.5 0.00 0.00 0.00 73 1012.8
20240613181559 31 20 1.6 20.9 0.00 0.00 0.00 73 1013.0
20240613180054 31 112 3.2 8.0 0.00 0.00 0.00 73 1012.8
20240613174617 31 136 3.2 16.1 0.00 0.00 0.00 74 1012.9
20240613173133 31 180 3.2 12.9 0.00 0.00 0.00 71 1012.9
20240613171623 31 71 4.8 17.7 0.00 0.00 0.00 68 1012.8
20240613170057 32 93 3.2 8.0 0.00 0.00 0.00 70 1012.7
20240613164556 31 342 1.6 11.3 0.00 0.00 0.00 71 1012.7
20240613163054 31 65 1.6 9.7 0.00 0.00 0.00 72 1012.6
20240613161603 31 106 3.2 12.9 0.00 0.00 0.00 73 1012.5
20240613160050 31 128 3.2 12.9 0.00 0.00 0.00 75 1012.7
20240613154553 31 126 3.2 14.5 0.00 0.00 0.00 72 1012.9
20240613153109 31 76 1.6 8.0 0.00 0.00 0.00 72 1012.9
20240613151550 30 25 3.2 11.3 0.00 0.00 0.00 74 1012.8
20240613150050 30 71 3.2 11.3 0.00 0.00 0.00 76 1012.9
20240613144559 30 69 4.8 12.9 0.00 0.00 0.00 77 1013.0
20240613143054 29 101 1.6 8.0 0.00 0.00 0.00 78 1012.9
20240613141553 29 146 1.6 9.7 0.00 0.00 0.00 78 1013.0
20240613140051 28 113 1.6 11.3 0.00 0.00 0.00 80 1012.9
20240613134607 28 56 1.6 11.3 0.00 0.00 0.00 80 1012.9
20240613133059 28 84 1.6 9.7 0.00 0.00 0.00 82 1013.0
20240613131552 28 51 1.6 6.4 0.00 0.00 0.00 82 1012.9
20240613130100 28 317 1.6 12.9 0.00 0.00 0.00 83 1012.8
20240613124601 27 161 3.2 11.3 0.00 0.00 0.00 85 1012.8